Location: Newark
(49.8969°N, 3.3422°E)
Time: 20:52:02
(UTC+00:00)

Vanguard 1 Rocket - Pass Details

Date: 23 January 2020
Orbit: 650 x 4226 km, 34.3° (Epoch: 22 February)

Event Time Altitude Azimuth Distance (km) Brightness Sun altitude
Rises 09:49:01 0° 219° (SW) 4,191 11.1 14.9°
Reaches altitude 10° 09:51:45 10° 208° (SSW) 3,572 10.9 15.1°
Maximum altitude 09:59:53 31° 150° (SSE) 3,221 12.2 15.8°
Drops below altitude 10° 10:13:34 10° 98° (E) 6,108 12.2 16.8°
Sets 10:20:11 0° 90° (E) 7,676 12.5 17.3°
